Location: Unspecified
(0.0000°N, 0.0000°E)
Time: 17:26:08
(UTC+00:00)

Amateur Radio Satellites - All Passes

Search period start: 01 May 2016 16:56
Search period end: 02 May 2016 16:56
Location: Unspecified, 0.0000°N, 0.0000°E

Satellite Date Start Highest point End Downlink Frequencies (MHz)
Time Altitude Azimuth
NOAA 18 01 May 17:25:01 17:30:22 49° 77° (ENE) 17:35:40 137.9125
CUTE-I 01 May 17:26:59 17:31:49 35° 77° (ENE) 17:36:36 437.470
JUGNU 01 May 17:33:39 17:36:40 14° 349° (NNW) 17:39:41 437.505
BEESAT 3 01 May 17:37:47 17:40:09 15° 292° (WNW) 17:42:32 437.485
BEESAT 2 01 May 17:40:48 17:44:13 28° 292° (WNW) 17:47:37 435.950
LilacSat-2 01 May 17:41:24 17:45:08 45° 79° (ENE) 17:48:51 437.200
GOMX 1 01 May 17:43:36 17:46:42 18° 77° (ENE) 17:49:55 467.674
AUBIESAT-1 01 May 17:45:36 17:47:59 14° 73° (ENE) 17:50:23 437.475
BRITE-PL 01 May 18:00:15 18:04:32 82° 81° (E) 18:09:07 437.365/2234.400
Cubesat XI-IV 01 May 18:10:16 18:15:37 71° 257° (WSW) 18:20:56 437.490
YUBILEINY 01 May 18:10:25 18:19:16 87° 93° (E) 18:28:01 435.215
SO-50 01 May 18:13:31 18:16:53 21° 248° (WSW) 18:20:13 436.795
NOAA 15 01 May 18:14:53 18:19:38 36° 257° (WSW) 18:24:24 137.62
CUBESAT XI-V 01 May 18:18:48 18:20:37 12° 282° (WNW) 18:22:27 437.345
Cosmos 2491 01 May 18:25:48 18:34:26 66° 267° (W) 18:43:05 435.465 / 435.565
SRMSAT 01 May 18:27:19 18:32:00 23° 343° (NNW) 18:36:42 437.500
HO-68 01 May 18:29:10 18:32:06 13° 75° (ENE) 18:35:01 435.675
PHONESAT 2.4 01 May 18:36:48 18:39:54 52° 223° (SW) 18:43:00 2401.200-2431.200
CINEMA 3 01 May 18:45:02 18:46:27 11° 77° (ENE) 18:47:53 145.822/145.860
Cosmos 2504 01 May 18:52:32 18:59:23 33° 94° (E) 19:05:50 435.465 / 435.565
STRAND 1 01 May 18:53:54 18:59:01 86° 102° (ESE) 19:04:10 437.568
M-CUBED/EXP-1 PRIME 01 May 18:57:44 19:01:59 44° 255° (WSW) 19:06:25 437.505
AIST 2 01 May 18:58:28 19:02:36 84° 293° (WNW) 19:06:43 435.215
CANX-2 01 May 19:08:04 19:11:31 24° 79° (ENE) 19:14:56 2200.000
CUTE-I 01 May 19:08:36 19:11:34 15° 257° (WSW) 19:14:32 437.470
NOAA 18 01 May 19:09:09 19:10:42 11° 256° (WSW) 19:12:15 137.9125
AUBIESAT-1 01 May 19:18:16 19:22:08 29° 255° (WSW) 19:26:08 437.475
GOMX 1 01 May 19:21:07 19:24:31 21° 260° (W) 19:28:05 467.674
DOVE 4 01 May 19:23:56 19:28:25 48° 259° (W) 19:33:10 437.250
RS-15 01 May 19:38:46 19:49:29 64° 110° (ESE) 20:00:32 29.354- 29.394
CUTE 1.7 + AOD 2 01 May 19:40:23 19:44:36 62° 79° (E) 19:48:46 437.475
CUBEBUG 2 01 May 19:41:28 19:44:22 16° 78° (ENE) 19:47:17 437.445
SEEDS 01 May 20:10:31 20:14:43 69° 259° (WSW) 20:18:52 437.485
ZACube-1 01 May 20:11:51 20:14:34 16° 78° (ENE) 20:17:17 437.345
HO-68 01 May 20:12:21 20:19:27 64° 255° (WSW) 20:26:31 435.675
COMPASS 1 01 May 20:16:46 20:20:57 87° 257° (WSW) 20:25:05 437.405
CINEMA 3 01 May 20:18:47 20:23:14 39° 259° (W) 20:27:49 145.822/145.860
SRMSAT 01 May 20:19:42 20:21:58 12° 352° (N) 20:24:14 437.500
PRISM 01 May 20:22:17 20:26:09 38° 282° (WNW) 20:30:03 437.425
DELFI C3 01 May 20:41:38 20:44:12 17° 79° (ENE) 20:46:44 145.870
CANX-2 01 May 20:45:07 20:47:06 13° 258° (WSW) 20:49:05 2200.000
Cosmos 2504 01 May 20:46:16 20:52:20 25° 272° (W) 20:58:09 435.465 / 435.565
AAUSAT CUBESAT 2 01 May 20:49:28 20:53:17 36° 258° (WSW) 20:57:04 437.432
Oscar 11 01 May 20:55:34 20:59:54 78° 79° (ENE) 21:04:13 145.826/435.025
FUNcube-1 01 May 21:04:36 21:09:12 82° 78° (ENE) 21:13:45 145.935
ANTELSAT 01 May 21:06:15 21:07:41 12° 102° (ESE) 21:09:08 437.575/2403.000
UWE-3 01 May 21:12:01 21:16:28 44° 258° (WSW) 21:20:55 435.000/436.395/437.385
JUGNU 01 May 21:14:26 21:16:58 13° 10° (N) 21:19:30 437.505
CUBEBUG 2 01 May 21:16:48 21:20:42 26° 258° (WSW) 21:24:38 437.445
HUMSAT D 01 May 21:27:18 21:31:03 29° 79° (ENE) 21:34:46 437.325/437.525
ZACube-1 01 May 21:46:51 21:50:35 25° 258° (WSW) 21:54:17 437.345
RS-15 01 May 21:54:13 22:01:35 20° 293° (WNW) 22:09:11 29.354- 29.394
UNISAT 6 01 May 21:57:40 22:01:53 72° 102° (ESE) 22:06:08 437.425
AO-85 01 May 21:57:42 21:57:55 10° 66° (ENE) 21:58:06 145.980
TIGRISAT 01 May 22:15:44 22:19:55 65° 282° (WNW) 22:24:09 435.000
DELFI C3 01 May 22:16:22 22:18:49 16° 258° (WSW) 22:21:15 145.870
50 SAT 01 May 22:24:26 22:26:36 15° 79° (ENE) 22:28:45 437.505
AISAT 01 May 22:33:25 22:36:45 21° 78° (ENE) 22:40:05 437.250
ANTELSAT 01 May 22:40:35 22:44:09 26° 282° (WNW) 22:47:43 437.575/2403.000
ESTCUBE 1 01 May 22:45:14 22:49:32 45° 78° (ENE) 22:53:46 437.505/2401.250
QB50P2 01 May 22:52:29 22:56:35 54° 102° (ESE) 23:00:42 145.880/145.840
DUCHIFAT 1 01 May 22:54:14 22:58:15 46° 102° (ESE) 23:02:15 145.980
POLYITAN 1 01 May 22:54:37 22:58:43 56° 102° (ESE) 23:02:50 437.675
POPSAT HIP 1 01 May 22:57:35 23:01:43 60° 102° (ESE) 23:05:52 437.405
QB50P1 01 May 23:00:55 23:05:05 69° 101° (ESE) 23:09:16 145.935-145.965
JUGNU 01 May 23:01:49 23:06:42 26° 18° (NNE) 23:11:35 437.505
HUMSAT D 01 May 23:05:24 23:06:23 11° 258° (WSW) 23:07:23 437.325/437.525
Cosmos 2499 01 May 23:06:34 23:09:40 13° 95° (E) 23:12:42 435.465 / 435.565
CUBEBUG 1 01 May 23:13:15 23:17:35 74° 77° (ENE) 23:21:54 437.445
AIST 1 01 May 23:16:58 23:21:03 45° 94° (E) 23:25:08
AO-85 01 May 23:34:47 23:38:08 25° 249° (WSW) 23:41:22 145.980
VELOX 1 01 May 23:36:52 23:41:07 48° 258° (WSW) 23:45:22 145.980
NANOSAT C BR1 01 May 23:36:53 23:40:42 35° 282° (WNW) 23:44:31 145.865
DX 1 01 May 23:38:38 23:42:52 52° 258° (WSW) 23:47:05 434.975-435.025
BUGSAT 1 01 May 23:42:01 23:46:08 85° 282° (WNW) 23:50:12 437.445
JAS-2 01 May 23:44:05 23:49:57 24° 102° (ESE) 23:55:30 435.910
UKube-1 01 May 23:47:44 23:51:55 49° 258° (WSW) 23:56:05 .
GONETS M04 01 May 23:54:22 00:03:14 87° 273° (W) 00:12:07
50 SAT 01 May 23:58:01 00:00:08 15° 258° (WSW) 00:02:15 437.505
SRMSAT 01 May 23:59:11 00:02:36 15° 12° (NNE) 00:06:00 437.500
AISAT 02 May 00:10:11 00:12:57 17° 258° (WSW) 00:15:45 437.250
Oscar 19 02 May 00:13:03 00:16:33 18° 103° (ESE) 00:20:01 437.125/150
SPROUT 02 May 00:20:19 00:24:21 40° 258° (WSW) 00:28:24 437.525
JUGNU 02 May 00:49:59 00:55:57 66° 22° (NNE) 01:01:53 437.505
Cosmos 2499 02 May 00:55:14 01:02:35 55° 273° (W) 01:09:30 435.465 / 435.565
BEESAT 02 May 00:58:16 01:00:50 14° 77° (ENE) 01:03:22 436.000
TISAT 1 02 May 00:59:14 01:03:22 54° 258° (WSW) 01:07:30 437.305
O/OREOS (USA 219) 02 May 01:00:49 01:04:57 37° 76° (ENE) 01:09:05 437.305
JAS-2 02 May 01:27:27 01:34:39 42° 284° (WNW) 01:41:28 435.910
ITAMSAT 1 02 May 01:29:08 01:32:06 15° 103° (ESE) 01:35:05 435.822/435.867
Gurwin Techsat 1B 02 May 01:34:28 01:39:40 59° 103° (ESE) 01:44:54 435.225
CUSAT 1 02 May 01:45:50 01:53:38 54° 85° (E) 02:01:03 437.405
SRMSAT 02 May 01:46:58 01:52:19 33° 19° (NNE) 01:57:37 437.500
ITUPSAT 1 02 May 01:50:07 01:54:54 73° 78° (ENE) 01:59:38 437.325
Oscar 19 02 May 01:51:17 01:55:35 27° 283° (WNW) 01:59:53 437.125/150
PCSat 02 May 01:56:55 02:02:19 83° 73° (ENE) 02:07:43 145.827
SWISSCUBE 02 May 02:00:16 02:05:01 70° 258° (WSW) 02:09:45 437.505
DANDE 02 May 02:15:52 02:23:30 48° 86° (E) 02:31:28 436.750
BEESAT 02 May 02:34:15 02:38:20 29° 257° (WSW) 02:42:25 436.000
JUGNU 02 May 02:39:18 02:45:01 46° 201° (SSW) 02:50:44 437.505
AO-7 02 May 02:43:23 02:51:00 40° 106° (ESE) 02:58:36 29.400- 29.500
ITAMSAT 1 02 May 03:06:42 03:11:17 32° 283° (WNW) 03:15:54 435.822/435.867
MOZHAYETS 4 02 May 03:15:41 03:20:01 40° 78° (ENE) 03:24:18
KKS-1 02 May 03:21:11 03:25:40 89° 258° (WSW) 03:30:08 437.445
HORYU 2 02 May 03:27:00 03:29:13 14° 103° (ESE) 03:31:27 437.375
CUSAT 1 02 May 03:29:53 03:35:21 20° 267° (W) 03:40:40 437.405
SRMSAT 02 May 03:35:36 03:41:35 90° 52° (NE) 03:47:33 437.500
STARS 02 May 03:41:10 03:45:35 75° 77° (ENE) 03:50:00 437.465
BEESAT 3 02 May 03:52:40 03:55:21 18° 68° (ENE) 03:58:01 437.485
BEESAT 2 02 May 03:59:47 04:00:19 10° 68° (ENE) 04:00:53 435.950
DANDE 02 May 03:59:52 04:06:06 25° 265° (W) 04:12:32 436.750
ISS 02 May 04:13:09 04:16:22 56° 125° (SE) 04:19:34 145.825
JUGNU 02 May 04:30:14 04:34:24 19° 195° (SSW) 04:38:33 437.505
NOAA 18 02 May 04:34:04 04:34:20 10° 104° (ESE) 04:34:36 137.9125
AO-7 02 May 04:36:38 04:43:23 28° 287° (WNW) 04:50:13 29.400- 29.500
SO-50 02 May 04:44:52 04:49:09 33° 112° (ESE) 04:53:29 436.795
YUBILEINY 02 May 04:50:20 04:56:11 20° 87° (E) 05:02:00 435.215
BRITE-PL 02 May 04:51:58 04:53:45 12° 101° (E) 04:55:30 437.365/2234.400
CUBESAT XI-V 02 May 04:57:23 05:01:54 58° 78° (ENE) 05:06:24 437.345
HORYU 2 02 May 05:01:55 05:05:31 25° 282° (WNW) 05:09:08 437.375
Cosmos 2491 02 May 05:04:16 05:11:43 31° 93° (E) 05:19:08 435.465 / 435.565
Cubesat XI-IV 02 May 05:11:12 05:15:15 22° 103° (ESE) 05:19:17 437.490
NOAA 15 02 May 05:12:32 05:17:28 40° 103° (ESE) 05:22:24 137.62
SRMSAT 02 May 05:25:33 05:30:51 33° 199° (SSW) 05:36:09 437.500
BEESAT 3 02 May 05:30:31 05:32:47 15° 248° (WSW) 05:35:05 437.485
BEESAT 2 02 May 05:34:37 05:37:56 26° 248° (WSW) 05:41:15 435.950
LilacSat-2 02 May 05:36:13 05:39:40 35° 101° (ESE) 05:43:08 437.200
STRAND 1 02 May 05:50:36 05:52:51 13° 77° (ENE) 05:55:05 437.568
CUTE-I 02 May 06:05:43 06:11:02 80° 283° (WNW) 06:16:24 437.470
GOMX 1 02 May 06:06:23 06:11:08 40° 101° (E) 06:15:37 467.674
PHONESAT 2.4 02 May 06:06:41 06:09:49 87° 129° (SE) 06:12:56 2401.200-2431.200
NOAA 18 02 May 06:09:25 06:14:40 51° 283° (WNW) 06:19:58 137.9125
DOVE 4 02 May 06:09:36 06:12:21 16° 100° (E) 06:15:01 437.250
JUGNU 02 May 06:23:03 06:24:18 11° 186° (S) 06:25:34 437.505
BRITE-PL 02 May 06:26:45 06:32:01 45° 283° (WNW) 06:37:01 437.365/2234.400
SO-50 02 May 06:27:06 06:29:25 13° 293° (WNW) 06:31:44 436.795
YUBILEINY 02 May 06:44:15 06:52:33 50° 267° (W) 07:00:58 435.215
Cubesat XI-IV 02 May 06:50:50 06:55:02 24° 283° (WNW) 06:59:16 437.490
NOAA 15 02 May 06:54:40 06:56:56 13° 283° (WNW) 06:59:14 137.62
AIST 2 02 May 06:56:51 07:00:56 66° 249° (WSW) 07:05:02 435.215
M-CUBED/EXP-1 PRIME 02 May 06:59:24 07:02:35 34° 286° (WNW) 07:05:38 437.505
Cosmos 2491 02 May 07:00:32 07:08:08 34° 273° (W) 07:15:48 435.465 / 435.565
CINEMA 3 02 May 07:00:32 07:03:04 15° 101° (E) 07:05:34 145.822/145.860
Cosmos 2504 02 May 07:01:45 07:09:28 47° 88° (E) 07:17:40 435.465 / 435.565
CANX-2 02 May 07:14:12 07:17:54 29° 102° (ESE) 07:21:37 2200.000
SRMSAT 02 May 07:17:13 07:20:33 15° 192° (SSW) 07:23:53 437.500
AUBIESAT-1 02 May 07:19:24 07:22:07 22° 286° (WNW) 07:24:45 437.475
RS-15 02 May 07:20:24 07:32:20 56° 69° (ENE) 07:43:51 29.354- 29.394
STRAND 1 02 May 07:27:03 07:31:44 37° 257° (WSW) 07:36:24 437.568
DOVE 4 02 May 07:46:00 07:49:50 24° 283° (WNW) 07:53:30 437.250
CUTE 1.7 + AOD 2 02 May 07:46:38 07:50:51 78° 101° (E) 07:55:07 437.475
GOMX 1 02 May 07:47:23 07:48:49 11° 284° (WNW) 07:50:14 467.674
UWE-3 02 May 07:51:14 07:51:25 10° 102° (ESE) 07:51:36 435.000/436.395/437.385
CUBEBUG 2 02 May 07:53:46 07:56:48 20° 102° (ESE) 07:59:49 437.445
HO-68 02 May 08:03:47 08:10:54 76° 284° (WNW) 08:18:05 435.675
JUGNU 02 May 08:13:53 08:14:31 10° 175° (S) 08:15:10 437.505
SEEDS 02 May 08:15:48 08:19:55 57° 281° (WNW) 08:24:05 437.485
COMPASS 1 02 May 08:20:56 08:25:05 75° 282° (WNW) 08:29:18 437.405
ZACube-1 02 May 08:21:27 08:24:20 18° 102° (ESE) 08:27:13 437.345
PRISM 02 May 08:25:27 08:29:07 33° 258° (WSW) 08:32:48 437.425
CINEMA 3 02 May 08:36:48 08:39:58 20° 282° (WNW) 08:43:05 145.822/145.860
DELFI C3 02 May 08:40:35 08:43:08 16° 102° (ESE) 08:45:42 145.870
CANX-2 02 May 08:52:51 08:53:30 10° 281° (WNW) 08:54:08 2200.000
AAUSAT CUBESAT 2 02 May 08:53:10 08:56:52 32° 281° (WNW) 09:00:37 437.432
Cosmos 2504 02 May 08:56:43 09:02:34 21° 265° (W) 09:08:42 435.465 / 435.565
Oscar 11 02 May 09:04:12 09:08:30 78° 283° (WNW) 09:12:50 145.826/435.025
FUNcube-1 02 May 09:14:32 09:18:38 72° 282° (WNW) 09:22:46 145.935
ANTELSAT 02 May 09:17:35 09:21:04 21° 78° (ENE) 09:24:32 437.575/2403.000
UWE-3 02 May 09:24:06 09:27:38 27° 281° (WNW) 09:31:10 435.000/436.395/437.385
CUBEBUG 2 02 May 09:30:53 09:33:10 15° 282° (WNW) 09:35:28 437.445
HUMSAT D 02 May 09:32:05 09:35:45 33° 102° (ESE) 09:39:28 437.325/437.525
RS-15 02 May 09:34:50 09:44:20 27° 249° (WSW) 09:53:39 29.354- 29.394
ZACube-1 02 May 09:57:53 10:00:22 16° 282° (WNW) 10:02:52 437.345
JUGNU 02 May 10:00:38 10:04:29 18° 166° (SSE) 10:08:19 437.505
AO-85 02 May 10:05:48 10:10:03 27° 111° (ESE) 10:14:29 145.980
NANOSAT C BR1 02 May 10:10:11 10:11:07 11° 78° (ENE) 10:12:02 145.865
UNISAT 6 02 May 10:10:36 10:15:18 73° 258° (WSW) 10:19:58 437.425
DELFI C3 02 May 10:15:10 10:17:45 17° 281° (W) 10:20:21 145.870
VELOX 1 02 May 10:16:06 10:16:35 10° 103° (ESE) 10:17:04 145.980
50 SAT 02 May 10:16:33 10:17:23 11° 102° (ESE) 10:18:13 437.505
TIGRISAT 02 May 10:28:39 10:33:07 44° 258° (WSW) 10:37:35 435.000
GONETS M04 02 May 10:34:11 10:40:25 22° 87° (E) 10:46:37
AISAT 02 May 10:44:36 10:48:30 30° 102° (ESE) 10:52:23 437.250
ANTELSAT 02 May 10:54:07 10:57:30 20° 258° (WSW) 11:00:53 437.575/2403.000
QB50P2 02 May 10:58:45 11:03:01 70° 78° (ENE) 11:07:16 145.880/145.840
SRMSAT 02 May 10:59:01 11:01:08 12° 172° (S) 11:03:16 437.500
ESTCUBE 1 02 May 10:59:02 11:03:33 73° 101° (ESE) 11:08:06 437.505/2401.250
DUCHIFAT 1 02 May 10:59:40 11:03:51 58° 78° (ENE) 11:08:02 145.980
POLYITAN 1 02 May 11:00:53 11:05:09 71° 79° (E) 11:09:26 437.675
POPSAT HIP 1 02 May 11:03:43 11:08:00 76° 78° (ENE) 11:12:16 437.405
QB50P1 02 May 11:07:02 11:11:19 87° 79° (ENE) 11:15:35 145.935-145.965
Cosmos 2499 02 May 11:12:25 11:18:26 22° 88° (E) 11:24:38 435.465 / 435.565
CUBEBUG 1 02 May 11:23:18 11:27:42 79° 283° (WNW) 11:32:06 437.445
AIST 1 02 May 11:23:19 11:27:40 68° 86° (E) 11:32:01
NANOSAT C BR1 02 May 11:42:53 11:46:34 29° 258° (WSW) 11:50:17 145.865
BUGSAT 1 02 May 11:45:02 11:49:11 76° 258° (WSW) 11:53:22 437.445
AO-85 02 May 11:46:30 11:50:20 21° 293° (WNW) 11:54:18 145.980
50 SAT 02 May 11:48:08 11:50:54 20° 281° (WNW) 11:53:42 437.505
JUGNU 02 May 11:48:23 11:53:52 41° 160° (SSE) 11:59:22 437.505
DX 1 02 May 11:48:26 11:52:29 38° 282° (WNW) 11:56:32 434.975-435.025
VELOX 1 02 May 11:48:47 11:52:46 33° 282° (WNW) 11:56:47 145.980
UKube-1 02 May 11:56:27 12:00:26 37° 282° (WNW) 12:04:27 .
AISAT 02 May 12:23:20 12:24:42 11° 282° (WNW) 12:26:05 437.250
SPROUT 02 May 12:28:03 12:31:50 31° 281° (WNW) 12:35:37 437.525
GONETS M04 02 May 12:28:42 12:36:50 46° 267° (W) 12:45:00
Gurwin Techsat 1B 02 May 12:37:48 12:38:34 10° 77° (ENE) 12:39:21 435.225
Oscar 19 02 May 12:45:17 12:50:13 47° 77° (ENE) 12:55:08 437.125/150
SRMSAT 02 May 12:46:27 12:51:05 23° 163° (SSE) 12:55:43 437.500
SWISSCUBE 02 May 12:47:51 12:49:23 11° 103° (ESE) 12:50:55 437.505
PCSat 02 May 12:51:56 12:55:21 17° 110° (ESE) 12:58:47 145.827
JAS-2 02 May 13:00:43 13:05:58 69° 258° (WSW) 13:11:39 435.910
Cosmos 2499 02 May 13:03:09 13:11:04 48° 266° (W) 13:19:26 435.465 / 435.565
TISAT 1 02 May 13:04:43 13:08:42 44° 282° (WNW) 13:12:41 437.305
O/OREOS (USA 219) 02 May 13:11:23 13:15:58 68° 104° (ESE) 13:20:31 437.305
BEESAT 02 May 13:18:36 13:22:38 27° 103° (ESE) 13:26:40 436.000
JUGNU 02 May 13:37:05 13:42:55 71° 339° (NNW) 13:48:46 437.505
ITAMSAT 1 02 May 14:02:19 14:07:11 41° 77° (ENE) 14:12:01 435.822/435.867
ITUPSAT 1 02 May 14:12:25 14:17:05 57° 282° (WNW) 14:21:48 437.325
Gurwin Techsat 1B 02 May 14:13:08 14:18:14 48° 257° (WSW) 14:23:19 435.225
SWISSCUBE 02 May 14:22:34 14:26:53 35° 282° (WNW) 14:31:15 437.505
CUSAT 1 02 May 14:29:19 14:31:45 37° 276° (W) 14:34:24 437.405
PCSat 02 May 14:33:45 14:38:29 31° 289° (WNW) 14:43:13 145.827
SRMSAT 02 May 14:34:38 14:40:30 58° 159° (SSE) 14:46:23 437.500
BEESAT 02 May 14:57:28 15:00:08 15° 283° (WNW) 15:02:50 436.000
DANDE 02 May 15:06:15 15:08:47 36° 275° (W) 15:11:11 436.750
AO-7 02 May 15:09:17 15:17:28 64° 74° (ENE) 15:25:37 29.400- 29.500
JUGNU 02 May 15:27:12 15:32:05 27° 342° (NNW) 15:37:00 437.505
MOZHAYETS 4 02 May 15:32:02 15:36:35 70° 102° (ESE) 15:41:11
KKS-1 02 May 15:33:46 15:38:08 58° 282° (WNW) 15:42:30 437.445
HORYU 2 02 May 15:38:25 15:41:47 21° 78° (ENE) 15:45:07 437.375
ITAMSAT 1 02 May 15:44:29 15:46:21 12° 257° (WSW) 15:48:12 435.822/435.867
BEESAT 3 02 May 15:45:14 15:47:59 18° 112° (ESE) 15:50:44 437.485
ISS 02 May 15:47:09 15:50:06 32° 55° (NE) 15:53:03 145.825
STARS 02 May 15:52:06 15:56:28 76° 282° (WNW) 16:00:50 437.465
BEESAT 2 02 May 15:52:53 15:54:04 11° 112° (ESE) 15:55:15 435.950
SRMSAT 02 May 16:23:56 16:29:44 51° 339° (NNW) 16:35:32 437.500
